FWV912 LIMZ-EDJA

Flight info

Callsign FWV912
Flight time N/A
Altitude 19000
Route TOP M135 ASTIG/N0444F360 DCT BOTAL DCT VAKON DCT NESTI DCT TAGIP DCT GUNGO DCT TISAX DCT IVKAL T102 NINUR T101 BETOS BETOS1A/08L EDJA/06
Aircraft A320/M-SDE3FGHIRWY/LB1

Departure

Time N/A
Airport Cuneo International Airport (LIMZ)

Arrival

Time 2026-04-29 19:56
Airport Memmingen Allgau Airport (EDJA)
Time Latitude Longitude Altitude Speed Heading
2026-04-29 19:44 47.98463 10.97690 12249 ft 342 kts 294°
2026-04-29 19:45 47.99355 10.94404 12247 ft 342 kts 294°
2026-04-29 19:45 48.00175 10.91075 12248 ft 343 kts 286°
2026-04-29 19:45 48.00355 10.87516 12249 ft 348 kts 266°
2026-04-29 19:45 47.99740 10.84011 12249 ft 351 kts 252°
2026-04-29 19:46 47.98913 10.80576 12177 ft 352 kts 252°
2026-04-29 19:46 47.98089 10.77145 11928 ft 351 kts 252°
2026-04-29 19:46 47.97264 10.73728 11674 ft 349 kts 252°
2026-04-29 19:46 47.96445 10.70324 11421 ft 348 kts 252°
2026-04-29 19:47 47.95622 10.66934 11172 ft 347 kts 251°
2026-04-29 19:47 47.94798 10.63552 10919 ft 347 kts 251°
2026-04-29 19:47 47.93972 10.60176 10676 ft 346 kts 252°
2026-04-29 19:47 47.93146 10.56809 10433 ft 345 kts 251°
2026-04-29 19:48 47.92323 10.53453 10187 ft 345 kts 251°
2026-04-29 19:48 47.91778 10.51231 10017 ft 344 kts 251°
2026-04-29 19:48 47.90680 10.46742 9655 ft 344 kts 251°
2026-04-29 19:48 47.89866 10.43424 9388 ft 342 kts 251°
2026-04-29 19:49 47.89048 10.40101 9126 ft 342 kts 250°
2026-04-29 19:49 47.88230 10.36774 8858 ft 342 kts 250°
2026-04-29 19:49 47.87413 10.33455 8586 ft 341 kts 250°
2026-04-29 19:49 47.86594 10.30136 8333 ft 341 kts 250°
2026-04-29 19:50 47.85774 10.26825 8082 ft 341 kts 249°
2026-04-29 19:50 47.84951 10.23519 7828 ft 340 kts 249°
2026-04-29 19:50 47.84128 10.20217 7436 ft 340 kts 249°
2026-04-29 19:50 47.83310 10.16928 6947 ft 337 kts 248°
2026-04-29 19:51 47.82573 10.13633 6446 ft 335 kts 258°
2026-04-29 19:51 47.82683 10.10221 5947 ft 329 kts 290°
2026-04-29 19:51 47.83786 10.07388 5486 ft 317 kts 317°
2026-04-29 19:51 47.85498 10.05454 5041 ft 305 kts 335°
2026-04-29 19:52 47.87322 10.03880 4581 ft 300 kts 339°
2026-04-29 19:52 47.89271 10.03192 4131 ft 282 kts 11°
2026-04-29 19:52 47.90968 10.04174 4000 ft 250 kts 46°
2026-04-29 19:52 47.91903 10.06160 4007 ft 225 kts 65°
2026-04-29 19:53 47.92611 10.08139 4007 ft 209 kts 64°
2026-04-29 19:53 47.93311 10.09950 3964 ft 195 kts 63°
2026-04-29 19:53 47.93989 10.11660 3793 ft 189 kts 63°
2026-04-29 19:53 47.94655 10.13331 3576 ft 187 kts 63°
2026-04-29 19:54 47.95941 10.16557 3094 ft 170 kts 60°
2026-04-29 19:54 47.96518 10.18007 2850 ft 155 kts 59°
2026-04-29 19:54 47.97034 10.19303 2630 ft 137 kts 59°
2026-04-29 19:55 47.97505 10.20480 2394 ft 126 kts 57°
2026-04-29 19:55 47.97955 10.21627 2253 ft 137 kts 57°
2026-04-29 19:55 47.98432 10.22795 2101 ft 131 kts 58°
2026-04-29 19:55 47.98842 10.23865 2076 ft 104 kts 60°
2026-04-29 19:56 47.99047 10.24370 2068 ft 29 kts 58°
2026-04-29 19:56 47.99147 10.24618 2067 ft 27 kts 59°
2026-04-29 19:56 47.99241 10.24853 2066 ft 25 kts 60°
2026-04-29 19:56 47.99332 10.25084 2062 ft 26 kts 60°
2026-04-29 19:57 47.99413 10.25290 2058 ft 18 kts 57°
2026-04-29 19:57 47.99434 10.25306 2058 ft 2 kts 298°
2026-04-29 19:57 47.99428 10.25287 2058 ft 1 kts 245°
2026-04-29 19:57 47.99393 10.25213 2060 ft 18 kts 232°
2026-04-29 19:58 47.99327 10.25071 2063 ft 15 kts 238°
2026-04-29 19:58 47.99276 10.24949 2064 ft 12 kts 238°
2026-04-29 19:58 47.99233 10.24841 2066 ft 11 kts 240°
2026-04-29 19:58 47.99198 10.24749 2067 ft 10 kts 240°
2026-04-29 19:59 47.99157 10.24643 2067 ft 17 kts 239°
2026-04-29 19:59 47.99077 10.24445 2068 ft 26 kts 238°
2026-04-29 19:59 47.98982 10.24215 2070 ft 26 kts 238°
2026-04-29 19:59 47.98893 10.23979 2073 ft 24 kts 241°
2026-04-29 20:00 47.98835 10.23793 2076 ft 15 kts 290°
2026-04-29 20:00 47.98878 10.23734 2077 ft 0 kts 328°
2026-04-29 20:00 47.98878 10.23733 2078 ft 0 kts 328°
2026-04-29 20:03 47.98880 10.23732 2078 ft 5 kts 328°
2026-04-29 20:03 47.98911 10.23633 2075 ft 4 kts 255°
2026-04-29 20:03 47.98881 10.23502 2078 ft 16 kts 250°
2026-04-29 20:04 47.98852 10.23384 2081 ft 8 kts 250°
2026-04-29 20:04 47.98854 10.23327 2081 ft 8 kts 345°
2026-04-29 20:04 47.98883 10.23320 2078 ft 7 kts 37°
2026-04-29 20:04 47.98889 10.23328 2077 ft 1 kts 45°